Regional Weather Roundup
Issued by NWS

Home | Current Version | Previous Version | Graphics & Text | Print | Product List | Glossary On
Versions: 1 2 3 4 5 6 7 8 9 10 11 12 13 14 15 16 17 18 19 20 21 22 23 24 25 26 27 28 29 30 31 32 33 34 35 36 37 38 39 40 41 42 43 44 45 46 47 48 49 50
000
ASUS43 KLOT 232108
RWRIL

ILLINOIS REGIONAL WEATHER ROUNDUP
NATIONAL WEATHER SERVICE CHICAGO/ROMEOVILLE IL
300 PM CST FRI FEB 23 2018

NOTE: "FAIR" INDICATES FEW OR NO CLOUDS BELOW 12,000 FEET WITH NO
SIGNIFICANT WEATHER AND/OR OBSTRUCTIONS TO VISIBILITY.

* THESE STATIONS ARE NOT UNDER NWS QUALITY CONTROL. THEY ALSO MAY NOT
  REPORT WEATHER SUCH AS PRECIPITATION OR FOG.

ILZ001-002-007-009-015-016-024-232200-
NORTHWEST ILLINOIS

CITY           SKY/WX    TMP DP  RH WIND       PRES   REMARKS
MOLINE         FAIR      40  31  70 W12       30.24R
STERLING*      PTSUNNY   40  33  76 W13       30.23R
SAVANNA*       PTSUNNY   38  29  72 W9        30.23R WCI  31
$$

ILZ003-004-008-010-011-017-018-232200-
NORTH CENTRAL ILLINOIS

CITY           SKY/WX    TMP DP  RH WIND       PRES   REMARKS
ROCKFORD       CLOUDY    39  32  76 W12       30.21R WCI  32
FREEPORT*      FAIR      38  31  77 W14       30.21S WCI  29
ROCHELLE*      CLOUDY    38  34  85 W14       30.23R WCI  29
DE KALB*       CLOUDY    37  33  86 W10       30.21R WCI  30
PERU*          CLOUDY    37  32  85 W13       30.25R WCI  28
$$

ILZ005-006-012>014-019>023-232200-
NORTHEAST ILLINOIS

CITY           SKY/WX    TMP DP  RH WIND       PRES   REMARKS
CHICAGO-OHARE  CLOUDY    39  35  86 SW13      30.20R WCI  31
CHICAGO-MIDWAY CLOUDY    40  36  86 W17G23    30.21R
AURORA         CLOUDY    37  34  89 W17       30.22R WCI  27
LANSING*       CLOUDY    40  38  93 W14       30.21R
JOLIET*        CLOUDY    39  36  87 W12G17    30.23R WCI  32
WAUKEGAN       CLOUDY    38  33  82 W9G20     30.17R WCI  31
DUPAGE AIRPORT CLOUDY    37  35  92 W14G22    30.20R WCI  28
KANKAKEE*      CLOUDY    40  37  91 W16       30.25R
WHEELING       CLOUDY    39  35  86 W8        30.21R WCI  33
MORRIS*        CLOUDY    37  35  91 W15       30.23R WCI  28
ROMEOVILLE*    CLOUDY    37  35  92 W16       30.23R WCI  27
NORTHERLY ISL    N/A     40  34  79 W10         N/A
$$

LMZ740>746-232200-
SOUTHERN LAKE MICHIGAN

STATION/POSITION SKY/WX   TEMP    WIND        PRES    VSBY  WAVE
                          AIR SEA DIR/SP/G                  HT/PER
                          (F)     (DEG/KT/KT) (MB)    (MI)  (FT/S)
HARRISON CRIB              40     260/ 15/ 17   N/A
BURNHAM HARBOR             40     250/ 13/ 14   N/A
CALUMET HARBOR             41     250/  9/ 15 1021.9R
BURNS HARBOR               38     270/ 12/ 13 1022.7S
MICHIGAN CITY              37     250/ 16/ 17   N/A
$$

ILZ025>027-034>036-040-047-049-050-058-095>099-232200-
WEST-CENTRAL ILLINOIS

CITY           SKY/WX    TMP DP  RH WIND       PRES   REMARKS
QUINCY         CLOUDY    38  34  85 W8        30.26F WCI  32
GALESBURG*     CLOUDY    39  35  85 W5        30.26S
MACOMB*        CLOUDY   N/A N/A N/A W9        30.29R
JACKSONVILLE*  CLOUDY    38  35  91 W9        30.27R WCI  31
PITTSFIELD*    CLOUDY    38  36  91 NW6       30.28S WCI  34
$$

ILZ028>032-037-038-041>044-048-051>054-059>061-232200-
CENTRAL ILLINOIS

CITY           SKY/WX    TMP DP  RH WIND       PRES   REMARKS
PONTIAC        CLOUDY    38  38  99 W13       30.25S WCI  31
BLOOMINGTON    CLOUDY    38  36  92 W9        30.25R WCI  31
DECATUR        CLOUDY    44  40  85 W9        30.25R
PEORIA         CLOUDY    38  34  85 W9        30.26S WCI  31
LACON*         CLOUDY    38  34  85 W8        30.24S WCI  32
LINCOLN*       CLOUDY    39  38  95 NW7       30.27R WCI  34
SPRINGFIELD    CLOUDY    41  37  86 W7        30.27R
TAYLORVILLE    CLOUDY    43  40  91 W9        30.26R
$$

ILZ033-039-045-046-055>057-062-063-232200-
EAST-CENTRAL ILLINOIS

CITY           SKY/WX    TMP DP  RH WIND       PRES   REMARKS
CHAMPAIGN      CLOUDY    44  41  89 W13       30.23S
DANVILLE*      CLOUDY    44  41  88 W9        30.20S
RANTOUL*       CLOUDY    44  42  93 W13       30.24R
MATTOON        CLOUDY    47  44  90 W5        30.22S
PARIS*         CLOUDY    47  44  91 W9        30.24S
$$

ILZ079-100>102-232200-
SOUTHWEST ILLINOIS

CITY           SKY/WX    TMP DP  RH WIND       PRES   REMARKS
ALTON          CLOUDY    46  45  93 NW10      30.26S
BELLEVILLE     CLOUDY    50  43  76 W7        30.24S
CAHOKIA*       CLOUDY    49  42  77 W6        30.24F
SPARTA*        CLOUDY    50  47  90 CALM      30.26S
$$

ILZ064>066-069>071-074>076-080>082-084>086-088>090-092>094-232200-
SOUTH-CENTRAL ILLINOIS

CITY           SKY/WX    TMP DP  RH WIND       PRES   REMARKS
CARBONDALE     LGT RAIN  52  48  87 N6        30.26R
CAIRO*         CLOUDY    54  52  94 CALM      30.25S
EFFINGHAM*     CLOUDY    50  47  87 SW3       30.26R
MARION         PTSUNNY   50  50 100 CALM      30.27R
MT. VERNON     CLOUDY    51  47  86 S7        30.24F
CENTRALIA*     CLOUDY    51  47  85 SW6       30.25R
SALEM*         CLOUDY    52  46  80 W3        30.25R
METROPOLIS*    CLOUDY    55  52  89 N6        30.26S
$$

ILZ067-068-072-073-078-083-087-091-232200-
SOUTHEAST ILLINOIS

CITY           SKY/WX    TMP DP  RH WIND       PRES   REMARKS
LAWRENCEVILLE  CLOUDY    53  48  83 CALM      30.24F
FLORA*         CLOUDY    53  47  79 W6        30.24F
FAIRFIELD*     CLOUDY    51  48  89 MISG      30.24S
HARRISBURG*    FAIR      52  49  89 CALM      30.27R
ROBINSON*      CLOUDY    51  47  84 SW6       30.24S
CARMI*         FAIR      51  49  90 W5        30.26R
$$

ABBREVIATIONS USED IN REMARKS
   TC - TEMPERATURE IN CELSIUS
  WCI - WIND CHILL INDEX
   HX - HEAT INDEX
  VSB - VISIBILITY
$$




USA.gov is the U.S. government's official web portal to all federal, state and local government web resources and services.